Погода в Седневе

Украина / Черниговская область     51°38′35″N   31°34′07″E
темп.,
°C
ветер,
м/с
пор.,
м/с
влажн.,
%
обл.,
%
осадки,
мм/ч
давл.,
гПа
погр.,
м
14 августа, вс
вс1400:00+21всв5147165 0.0 1015501
03:00+18всв41074100 0.0 1015204
06:00+19всв4107199 0.0 1015271
09:00+24в51360100 0.0 1015611
12:00+29в684362 0.0 10151563
15:00+29в6741100 0.0 10141876
18:00+25в6105593 0.0 1014691
21:00+21всв51273100 0.0 1014346
15 августа, пн
пн1500:00+21всв51374100 0.0 1014384
03:00+20всв5137486 0.0 1013356
06:00+20всв51466100 0.0 1013363
09:00+23всв51256100 0.0 1013415
12:00+29в7937100 0.0 10121003
15:00+27св61148100 0.0 1011572
18:00+26св61353100 0.0 1011622
21:00+24всв61454100 0.0 1011432
16 августа, вт
вт1600:00+25всв6144697 0.0 1009566
03:00+27всв61535100 0.0 1009670
06:00+24в71544100 0.0 1009718
09:00+22в61255100 0.1 1010524
12:00+26в71150100 0.0 1010916
15:00+28вюв71039100 0.0 10101477
18:00+23в61145100 0.0 1010665
21:00+21в5125078 0.0 1011453
17 августа, ср
ср1700:00+20вюв3665100 0.0 1011202
03:00+19всв387796 0.2 1010188
06:00+18в2574100 0.1 1010135
09:00+21в356280 0.2 1010391
12:00+25юв465976 0.8 1010984
15:00+25ю356581 0.8 1010694
18:00+20зюз3693100 2.8 1010208
21:00+19сз3696100 9.4 1010140
18 августа, чт
чт1800:00+19ссв3795100 1.9 1009177
03:00+19в229563 1.9 100934
06:00+19в259398 0.0 1009120
09:00+21вюв3583100 0.7 1010329
12:00+25вюв3564100 0.1 1010872
15:00+27в4556100 0.2 10101448
18:00+27в366083 0.1 1010432
21:00+21всв347189 0.3 101160